User: anonymous   Login
Location: Unspecified
(0.0000°N, 0.0000°E)
Time: 08:04:59
(UTC+00:00)
Language:

Kosmos-1553 - Orbit

View from above orbital plane
View from above orbital plane
View from above satellite
View from above satellite

Ground track
Ground track

The orbit data is extracted from the following two-line orbital elements,

1 14973U 84046A   19345.69037942 +.00000057 +00000-0 +42933-4 0  9995
2 14973 082.9371 217.8247 0033520 075.3660 337.7795 13.75341499784610
Epoch (UTC): 11 December 2019 16:34:08
Eccentricity: 0.0033520
inclination: 82.9371°
perigee height: 956 km
apogee height: 1005 km
right ascension of ascending node: 217.8247°
argument of perigee: 75.3660°
revolutions per day: 13.75341499
mean anomaly at epoch: 337.7795°
orbit number at epoch: 78461

The dashed part of the orbit path shows where the satellite is in the earth's shadow,  

DLR